Regional Weather Roundup
Issued by NWS

Home | Current Version | Previous Version | Graphics & Text | Print | Product List | Glossary On
Versions: 1 2 3 4 5 6 7 8 9 10 11 12 13 14 15 16 17 18 19 20 21 22 23 24 25 26 27 28 29 30 31 32 33 34 35 36 37 38 39 40 41 42 43 44 45 46 47 48 49 50
167
ASUS45 KSLC 241510
RWRUT

UTAH REGIONAL WEATHER ROUNDUP
NATIONAL WEATHER SERVICE SALT LAKE CITY UT
900 AM MDT SUN SEP 24 2017

UTZ001>011-023>025-241600-

NORTHERN UTAH

CITY           SKY/WX    TMP DP  RH WIND       PRES   REMARKS
BRIGHAM CITY   CLOUDY    45  36  71 NW7       29.93R
HILL AFB       CLOUDY    43  38  82 NW8       29.91R
LOGAN          CLOUDY    43  37  79 N8        29.94S
OGDEN          CLOUDY    45  38  76 NW9       29.90R
SALT LAKE CITY LGT RAIN  46  40  79 NW12      29.92R
TOOELE VALLEY  DRIZZLE   43  39  87 W14       29.95R
WENDOVER       CLOUDY    47  31  53 NW23      29.98S
HEBER CITY     LGT SNOW  36  32  87 E6        29.89R WCI  31
WEST JORDAN    CLOUDY    43  42  97 NW10G20   29.93R

$$

UTZ011>015-024>027-241600-

CENTRAL/NORTHEAST UTAH

CITY           SKY/WX    TMP DP  RH WIND       PRES   REMARKS
PROVO AIRPORT  RAIN      39  37  93 SE6       29.95R WCI  35
MOAB/CANYONLAN SUNNY     50  43  77 SE3       29.89R
DELTA          CLOUDY    37  37 100 W7        29.99R WCI  32
PRICE          CLOUDY    42  36  79 CALM      29.90R
ROOSEVELT      CLOUDY    41  37  87 E3        29.94R
VERNAL         CLOUDY    40  37  89 N8        29.91S WCI  34

$$

UTZ013>016-019>022-027-241600-

SOUTHERN UTAH

CITY           SKY/WX    TMP DP  RH WIND       PRES   REMARKS
BRYCE CANYON   MOSUNNY   36  27  69 NW18      29.99S WCI  26
CEDAR CITY     FOG       35  35 100 NE5       30.01R VSB<1/4 WCI  31
MILFORD        LGT RAIN  37  37 100 S6        30.03R FOG     WCI  32
ST GEORGE      CLOUDY    49  36  61 SE6       30.01R
HANKSVILLE     MOSUNNY   48  34  57 CALM      29.93R
BLANDING         N/A     46  22  38 S5        30.04R

$$

REGIONAL REPORTS     COLORADO/ARIZONA

CITY           SKY/WX    TMP DP  RH WIND       PRES   REMARKS
CRAIG, CO      CLOUDY    40  37  89 E3        29.91R
GRAND JUNCTION SUNNY     47  44  90 W7        29.89R
RIFLE, CO      CLOUDY    42  41  96 NW3       29.91R
MONTROSE, CO   SUNNY     48  38  68 SE5       29.93R
CORTEZ, CO     SUNNY     43  35  73 E5        29.97S
PAGE, AZ       SUNNY     51  32  48 N5        29.96R
GRAND CANYON   SUNNY     39  27  62 W8        30.02R WCI  33
KINGMAN, AZ    SUNNY     51  33  50 E5        30.00R
FLAGSTAFF, AZ  SUNNY     42  19  39 VRB3      30.01R

$$

REGIONAL REPORTS    NEVADA/IDAHO/WYOMING

CITY           SKY/WX    TMP DP  RH WIND       PRES   REMARKS
LAS VEGAS, NV  SUNNY     60  30  32 N8        29.99R
ELY, NY        MOSUNNY   35  29  78 CALM      30.05R
ELKO, NV       SUNNY     33  29  85 W5        30.07R WCI  29
POCATELLO, ID  CLOUDY    40  34  79 CALM      30.02R
BURLEY, ID     MOSUNNY   39  32  76 W8        30.03R WCI  33
FORT BRIDGER,  SNOW      33  33 100 NE9       29.94R VSB 1/4 WCI  26
EVANSTON, WY   LGT SNOW  35  34  96 N9        29.90F FOG     WCI  28
ROCK SPRINGS,  CLOUDY    34  30  85 NE25G39   29.93S WCI  21

$$




USA.gov is the U.S. government's official web portal to all federal, state and local government web resources and services.